Regional Weather Roundup
Issued by NWS

Home | Current Version | Previous Version | Graphics & Text | Print | Product List | Glossary On
Versions: 1 2 3 4 5 6 7 8 9 10 11 12 13 14 15 16 17 18 19 20 21 22 23 24 25 26 27 28 29 30 31 32 33 34 35 36 37 38 39 40 41 42 43 44 45 46 47 48 49 50
000
ASUS43 KMPX 101910
RWRMN
WEATHER ROUNDUP FOR MINNESOTA
NATIONAL WEATHER SERVICE TWIN CITIES/CHANHASSEN MN
200 PM CDT THU JUL 10 2014


NOTE: "FAIR" INDICATES FEW OR NO CLOUDS BELOW 12,000 FEET WITH NO
SIGNIFICANT WEATHER AND/OR OBSTRUCTIONS TO VISIBILITY. N/A MEANS
CURRENT SKY AND/OR WEATHER CONDITIONS ARE NOT AVAILABLE.

MNZ060>063-068>070-102000-
   Twin Cities Metro

CITY           SKY/WX    TMP DP  RH WIND       PRES   REMARKS
TWIN CITIES    MOSUNNY   82  61  48 S10G16    30.01F
ST PAUL        MOSUNNY   80  63  55 SE9       30.02F
CRYSTAL        PTSUNNY   83  60  45 S9        29.99F
LAKEVILLE      MOSUNNY   79  61  53 S8        30.02F HAZE
EDEN PRAIRIE   MOSUNNY   84  63  49 S10G17    30.00F
SOUTH ST PAUL  MOSUNNY   81  62  53 SE8       30.02F
LAKE ELMO      FAIR      81  66  61 SE8       30.04F
$$
MNZ001>005-007-008-013>017-022>024-027-028-102000-
   Northwest Minnesota

CITY           SKY/WX    TMP DP  RH WIND       PRES   REMARKS
BEMIDJI        SUNNY     77  56  48 S9        29.97F
HALLOCK        PTSUNNY   79  59  50 S17G23    29.87F
ROSEAU         MOSUNNY   77  61  57 S14       29.92F
WARROAD        SUNNY     79  61  53 S10G16    29.93F
THIEF RVR FALL   N/A    N/A N/A N/A S14         N/A
CROOKSTON      PTSUNNY   79  57  47 S14       29.91F
FOSSTON        MOSUNNY   77  55  47 S9G18     29.95F
DETROIT LAKES  PTSUNNY   75  57  53 SE10      29.96F
MOORHEAD       CLOUDY    81  57  44 SE12      29.91F
PARK RAPIDS    SUNNY     78  56  46 S13       29.97F
$$
MNZ006-009>011-018-025>026-102000-
   North Central Minnesota

CITY           SKY/WX    TMP DP  RH WIND       PRES   REMARKS
BAUDETTE       SUNNY     77  57  50 S12G17    29.96F
FLAG ISLAND    SUNNY     70  57  64 SE10      29.93F
INTL FALLS     SUNNY     77  53  43 SW7       29.97F
WASKISH        SUNNY     75  57  53 W5        29.97F
BIG FORK       SUNNY     79  54  41 S9        30.00F
LONGVILLE      MOSUNNY   79  57  47 SE12      29.99F
GRAND RAPIDS   SUNNY     75  50  41 S6        30.02S
CRANE LAKE     MOSUNNY   75  48  38 S7        30.00F
ORR            SUNNY     77  48  36 S9        29.97F
COOK           SUNNY     77  52  41 S8        30.01F
$$
MNZ012-019>021-037-102000-
   Northeast Minnesota

CITY           SKY/WX    TMP DP  RH WIND       PRES   REMARKS
DULUTH         MOSUNNY   76  56  49 SE10      30.03F
ELY            MOSUNNY   75  52  43 SW9       30.02F
HIBBING        SUNNY     79  48  33 SW8G18    30.01F
EVELETH        SUNNY     77  50  38 SW13      30.03S
DULUTH HARBOR  SUNNY     63  55  77 NE8       30.04F
TWO HARBORS    SUNNY     73  59  60 SE7       30.03F
SILVER BAY     SUNNY     70  61  73 S8        30.03F
GRAND MARAIS     N/A     54  48  80 E3        30.07F
G MARAIS ARPRT SUNNY     70  50  49 S10G16    30.09F
$$
MNZ029>031-032-039>041-046>048-054>057-064-102000-
   West Central Minnesota

CITY           SKY/WX    TMP DP  RH WIND       PRES   REMARKS
FERGUS FALLS   CLOUDY    79  57  47 SE10      29.92F
WHEATON        CLOUDY    77  63  61 SE17      29.92F
MORRIS         PTSUNNY   79  64  61 SE12G18   29.93F
ALEXANDRIA     PTSUNNY   80  58  46 S15       29.98F
WADENA         MOSUNNY   77  61  57 SE9       29.96F
GLENWOOD       MOSUNNY   81  63  54 S13G18    29.98F
APPLETON       PTSUNNY   82  61  47 S9G16     29.93S
BENSON         MOSUNNY   82  63  51 S14       29.94F
ORTONVILLE     CLOUDY    81  61  50 S12G17    29.92F
MADISON        CLOUDY    84  64  51 S13       29.93F
WILLMAR        FAIR      84  57  39 S8G18     29.97F
$$
MNZ033>034-036-042>043-049>051-058-059-102000-
   Central Minnesota

CITY           SKY/WX    TMP DP  RH WIND       PRES   REMARKS
ST CLOUD       SUNNY     84  60  44 S9G16     29.99F
SAUK CENTRE    FAIR      81  61  51 S12       29.98F
PAYNESVILLE    MOSUNNY   79  59  50 SE9       29.99F HAZE
AITKIN         SUNNY     81  57  44 S7        30.00F
PINE RIVER     SUNNY     79  59  50 S10       30.02F
BRAINERD       SUNNY     84  55  36 S10       30.00F
STAPLES        SUNNY     79  57  47 S12       29.98F
LONG PRAIRIE   FAIR      79  61  53 SE10      29.98F HAZE
LITTLE FALLS   SUNNY     81  55  41 SE8       29.99F
LITCHFIELD     MOSUNNY   82  61  47 S9        29.98F
BUFFALO        MOSUNNY   82  59  46 S9G16     30.01F
MAPLE LAKE     MOSUNNY   82  64  54 S7        30.01F
$$
MNZ037-044-045-052-053-102000-
   East Central Minnesota

CITY           SKY/WX    TMP DP  RH WIND       PRES   REMARKS
PRINCETON      SUNNY     84  63  48 S3        30.01S
MORA           SUNNY     79  54  41 S6        30.03F
CAMBRIDGE      SUNNY     82  63  51 S10       30.00F
RUSH CITY      MOSUNNY   79  59  49 S9        30.02F
MOOSE LAKE     MOSUNNY   79  55  44 S7        30.01S
HINCKLEY       FAIR      79  59  50 S9        30.02F
CLOQUET        MOSUNNY   77  52  41 S10G16    30.03F
MCGREGOR       SUNNY     77  55  47 S9        30.02F
$$
MNZ071>073-080-081-089-090-097-098-102000-
   Southwest Minnesota

CITY           SKY/WX    TMP DP  RH WIND       PRES   REMARKS
MONTEVIDEO     MOSUNNY   84  64  51 SW8G17    29.95S
GRANITE FALLS  PTSUNNY   82  62  50 SE16      29.97S
CANBY          CLOUDY    80  62  53 S10G18    29.95S
MARSHALL       MOSUNNY   82  61  47 S20       29.95F
REDWOOD FALLS  MOSUNNY   86  61  42 S18G25    29.97F
OLIVIA         MOSUNNY   81  63  54 S14       29.97F
PIPESTONE      PTSUNNY   82  61  47 S17       29.98S
WINDOM         SUNNY     84  61  45 S14G21    30.00S
WORTHINGTON    SUNNY     79  64  61 S16G23    30.01F
JACKSON        SUNNY     81  59  47 S17G23    30.02S
TRACY          SUNNY     83  63  50 S12G21    29.97F
SLAYTON        MOSUNNY   82  59  45 S18       29.99F
$$
MNZ065>067-074>077-082>085-091>093-102000-
   South Central Minnesota

CITY           SKY/WX    TMP DP  RH WIND       PRES   REMARKS
MANKATO        PTSUNNY   81  57  44 S15G24    30.02F
NEW ULM        SUNNY     82  63  51 S14G20    29.99F
ST JAMES       MOSUNNY   82  59  44 S14G24    30.01S
FAIRMONT       SUNNY     82  55  39 S17       30.02F
GLENCOE        SUNNY     84  57  39 S9        30.00F
FARIBAULT      SUNNY     86  54  32 S10       30.04F
OWATONNA       MOSUNNY   81  61  50 S9        30.05F
WASECA         MOSUNNY   79  52  38 S15G21    30.05F
ALBERT LEA     SUNNY     82  59  44 S10G16    30.05F
$$
MNZ078>079-086>088-094>096-102000-
   Southeast Minnesota

CITY           SKY/WX    TMP DP  RH WIND       PRES   REMARKS
ROCHESTER      MOSUNNY   78  62  57 SW14      30.09F
RED WING       MOSUNNY   82  64  54 SE9       30.03F
STANTON        PTSUNNY   82  61  48 S8G16     30.02F
DODGE CENTER   SUNNY     81  63  54 SW14      30.07F
WINONA         MOSUNNY   81  63  54 SW6       30.07F
AUSTIN         SUNNY     81  61  50 S8        30.07S
PRESTON        MOSUNNY   78  62  58 SW7       30.10F
$$
ABBREVIATIONS USED IN REMARKS
   TC - TEMPERATURES IN CELSIUS
  WCI - WIND CHILL INDEX
   HX - HEAT INDEX
  VSB - VISIBILITY
$$


USA.gov is the U.S. government's official web portal to all federal, state and local government web resources and services.